Vorticity
nan nan nan nan nan nan nan nan nan nan nan nan nan nan nan nan nan nan nan nan nan nan nan nan nan nan nan nan nan nan nan nan nan nan nan nan nan nan nan nan nan nan nan nan nan nan nan nan nan
nan 7 8 8 6 3 7 9 6 7 0 2 6 8 8 11 6 10 11 15 10 3 6 10 9 5 5 5 4 4 4 4 4 4 4 4 4 4 4 4 4 5 5 4 4 4 4 4 nan
nan 7 7 8 2 4 6 6 5 5 7 9 10 6 5 11 10 3 11 17 6 5 7 10 9 5 5 4 4 5 5 4 5 4 4 4 4 4 4 4 5 5 5 4 4 4 4 4 nan
nan 6 8 9 3 5 6 2 1 4 12 10 5 2 10 11 11 15 16 9 6 5 8 10 8 5 5 5 5 4 5 4 5 4 4 4 4 4 4 4 5 5 5 4 4 4 5 5 nan
nan 8 8 4 6 7 7 5 5 8 7 1 8 9 6 4 16 21 8 7 4 4 8 9 9 6 6 5 5 5 5 5 5 5 5 4 4 4 4 5 5 5 5 5 4 4 4 5 nan
nan 8 7 8 5 4 9 9 7 7 5 5 1 13 12 7 8 11 14 12 5 5 7 10 7 5 6 6 5 5 5 5 4 5 5 4 4 5 5 5 5 5 5 5 5 4 4 5 nan
nan 7 5 6 7 6 10 8 5 7 5 6 11 16 4 8 12 9 9 10 12 8 8 7 6 9 8 7 6 6 6 5 5 5 5 5 5 5 5 5 5 5 6 5 5 5 5 5 nan
nan 6 6 5 6 7 4 6 9 6 5 8 12 9 11 13 8 6 6 6 9 12 9 8 7 7 7 11 9 7 6 6 5 5 5 6 6 6 5 6 6 6 5 6 5 6 5 5 nan
nan 7 8 7 5 3 -1 6 5 5 6 4 6 1 16 18 -2 4 3 3 6 8 6 8 6 6 8 9 12 11 8 6 6 6 5 2 6 10 9 8 7 6 6 6 5 6 5 5 nan
nan 6 9 9 6 1 5 1 3 7 4 9 -0 2 13 11 9 3 1 3 2 6 7 5 6 5 6 6 9 9 8 7 7 8 8 6 7 9 10 11 10 8 6 8 7 7 8 5 nan
nan 6 8 6 6 7 5 4 5 2 1 6 1 4 9 7 4 7 21 13 5 1 4 6 4 6 6 6 7 7 8 9 9 8 8 7 7 7 7 8 10 13 9 8 10 8 10 9 nan
nan 9 5 6 6 5 3 6 5 0 6 4 6 7 5 8 11 9 4 11 17 9 6 6 6 8 4 4 7 7 6 7 8 9 8 6 6 7 7 7 8 7 10 9 7 8 8 7 nan
nan 4 3 7 9 9 10 7 12 3 16 10 8 7 5 7 9 13 5 8 9 11 10 8 6 3 5 4 4 7 7 6 8 9 7 6 7 7 7 7 7 7 8 7 7 7 7 7 nan
nan 7 8 9 10 9 8 7 8 8 16 10 12 10 9 6 7 11 8 8 7 8 9 8 5 5 5 6 3 6 5 7 7 7 9 6 5 8 7 7 7 7 7 7 8 8 8 8 nan
nan 9 16 11 9 7 10 6 5 11 7 6 7 11 12 8 12 8 8 7 8 9 10 7 5 5 5 8 7 6 5 8 6 7 10 8 5 6 7 6 7 8 8 7 7 8 8 8 nan
nan 9 8 8 9 14 11 8 11 13 10 9 9 14 9 9 8 8 8 5 7 7 11 10 9 7 6 3 5 7 10 6 7 8 10 10 7 6 6 6 7 9 8 8 7 7 7 9 nan
nan 8 4 9 8 13 2 7 7 6 9 9 12 9 11 11 10 10 9 9 5 6 7 6 7 12 10 3 7 9 8 7 8 8 9 11 9 6 5 6 9 9 8 8 7 7 8 8 nan
nan 8 7 5 6 8 3 5 4 5 5 7 6 5 8 10 10 11 9 8 10 10 8 6 10 6 5 10 11 8 9 8 9 9 9 10 9 8 6 7 10 8 6 7 9 8 7 8 nan
nan 9 9 7 9 9 7 4 8 11 7 7 7 8 7 10 9 11 14 10 6 8 12 7 5 5 8 7 6 9 8 6 8 11 11 8 9 9 7 7 8 8 8 9 7 8 8 7 nan
nan 10 9 7 8 10 11 9 14 14 10 7 5 7 9 7 6 8 12 15 12 8 6 9 7 6 4 3 7 10 11 13 12 10 11 9 8 8 8 7 8 7 7 10 9 5 6 10 nan
nan 8 7 7 11 8 11 11 10 9 8 8 8 7 7 5 5 9 10 10 12 14 9 9 9 8 8 6 1 2 6 10 12 9 9 11 10 8 9 7 8 9 8 8 9 8 5 7 nan
nan 7 7 7 8 12 7 13 10 13 5 6 6 10 8 7 11 9 10 12 10 9 13 15 9 10 11 12 9 5 2 3 5 10 9 10 12 9 9 9 8 8 8 10 10 9 7 7 nan
nan 7 10 10 10 12 5 8 2 6 8 11 10 7 10 10 8 7 8 8 10 13 13 10 12 13 13 14 9 6 7 8 8 11 11 9 10 12 10 10 9 8 8 10 10 8 9 5 nan
nan 9 7 12 15 11 13 6 0 8 14 11 8 5 6 7 7 9 9 8 9 12 12 12 13 10 12 11 12 10 6 2 4 6 8 9 9 11 12 13 10 9 10 10 9 9 9 7 nan
nan 9 9 8 13 6 3 12 15 12 18 12 4 5 8 8 9 7 6 8 8 8 12 14 12 11 12 10 10 9 9 8 6 5 7 8 8 10 13 11 10 10 10 9 9 10 11 10 nan
nan 7 6 6 6 7 11 12 13 11 12 7 7 7 7 8 7 7 7 9 7 6 7 11 15 12 11 11 9 9 8 9 10 9 9 9 9 11 12 10 9 10 10 9 8 8 10 10 nan
nan 11 6 7 7 13 11 5 12 10 2 5 6 9 8 7 8 8 10 11 7 8 8 7 13 15 12 11 8 9 11 10 11 10 8 9 10 11 12 11 10 9 9 9 9 9 10 9 nan
nan 4 8 9 13 9 6 11 11 4 5 6 8 8 7 7 8 8 11 10 8 8 7 11 12 14 15 12 10 10 9 8 10 11 11 9 10 12 11 9 8 9 9 9 9 9 11 9 nan
nan 7 11 10 9 8 9 6 14 9 9 7 4 6 6 6 8 9 10 10 9 8 9 10 11 17 15 12 12 10 11 11 11 10 10 11 10 11 9 8 9 9 9 9 9 10 10 9 nan
nan nan nan nan nan nan nan nan nan nan nan nan nan nan nan nan nan nan nan nan nan nan nan nan nan nan nan nan nan nan nan nan nan nan nan nan nan nan nan nan nan nan nan nan nan nan nan nan nan
CAPE
0 0 0 0 0 0 0 0 0 0 0 0 0 0 0 0 0 0 0 0 30 92 1375 2134 2418 2460 2414 2253 2147 1834 1753 1699 1566 1444 1341 1217 1031 803 592 524 331 62 0 0 0 0 0 0 0
0 0 0 0 0 0 0 0 0 0 0 0 0 0 0 0 13 0 0 0 8 167 1135 1795 2471 2501 2439 2235 2019 1800 1758 1738 1621 1476 1403 1296 1071 771 348 233 58 0 0 0 0 0 0 0 0
0 0 0 0 0 0 0 0 0 0 0 0 0 0 0 2 113 10 13 7 1 191 833 1342 2461 2472 2480 2321 2019 1845 1761 1763 1662 1627 1549 1396 1162 854 493 279 150 0 0 0 0 0 0 0 0
0 0 0 0 0 0 0 0 0 0 0 0 0 0 0 0 87 78 27 0 44 175 325 1687 2235 2387 2371 2306 2064 1888 1830 1840 1770 1743 1693 1535 1304 1024 654 363 270 72 0 0 0 0 0 0 13
0 0 0 0 0 0 0 0 0 0 0 0 0 0 0 0 259 95 11 5 6 112 166 1411 2054 2242 2314 2322 2191 2005 1882 1818 1845 1843 1779 1611 1402 1070 672 452 276 148 28 0 0 11 91 97 56
0 0 0 0 0 0 0 0 0 0 0 0 0 0 0 218 205 56 19 0 10 51 196 1011 1945 2116 2115 2194 2157 1994 1848 1818 1840 1851 1799 1698 1434 1087 733 490 355 333 183 144 119 164 214 273 225
0 0 0 0 0 0 0 0 0 0 0 0 0 0 1 0 222 0 0 0 0 27 203 569 1168 1809 2057 2026 1971 1959 1811 1736 1760 1723 1672 1661 1493 1137 799 554 463 490 389 325 319 387 390 388 285
0 0 0 0 0 0 0 0 0 0 0 0 0 0 12 56 226 22 0 0 68 72 101 280 687 1291 1458 1591 1997 1976 1909 1802 1704 1730 1733 1703 1548 1268 970 547 538 543 486 518 497 608 592 534 566
0 0 0 0 0 0 0 0 0 0 0 0 0 0 0 300 228 32 0 158 212 125 143 218 328 478 519 715 1502 1901 1960 1943 1792 1776 1743 1435 1082 891 578 452 380 627 548 598 627 755 748 689 519
0 0 0 0 0 0 0 0 0 0 0 0 0 0 0 204 379 193 2 11 123 142 165 231 248 308 275 314 389 838 1073 1361 1322 1260 1243 985 412 275 280 342 377 605 554 620 683 785 845 588 249
0 0 0 0 0 0 0 0 0 0 0 0 0 0 0 1 5 156 71 4 8 78 160 134 165 205 218 173 137 233 218 324 436 394 374 394 115 206 300 87 205 132 300 94 311 372 518 297 224
0 0 0 0 0 0 0 0 0 0 0 0 0 0 0 0 28 19 11 72 345 333 250 152 28 47 102 25 117 219 150 88 94 103 26 45 3 0 25 1 0 20 1 43 15 68 219 273 202
0 0 0 0 0 0 0 0 0 0 0 0 0 0 0 0 0 0 19 59 181 739 591 357 96 28 5 0 2 44 70 44 5 6 16 15 2 0 0 0 0 0 0 0 0 0 21 162 184
0 0 0 0 0 0 0 0 0 0 0 0 0 0 0 0 0 5 44 110 313 887 1165 789 412 130 31 0 0 2 27 9 0 0 6 9 0 0 0 0 0 0 0 0 0 0 0 32 93
0 0 0 0 0 0 0 0 0 0 0 0 0 0 0 0 0 0 5 106 300 739 1455 1162 711 440 303 169 1 0 13 3 0 0 0 7 0 0 0 0 0 0 0 0 0 0 0 0 0
0 0 0 0 0 0 0 0 0 0 0 0 0 0 0 0 0 0 0 8 3 2 81 1120 1155 454 222 185 95 1 21 27 5 0 0 1 0 0 0 0 0 0 0 0 0 0 0 0 0
0 0 0 0 0 0 0 0 0 0 0 0 0 0 0 0 0 0 0 0 0 0 0 0 93 62 3 23 107 117 100 96 107 85 53 48 17 0 0 0 0 0 0 0 0 0 0 0 0
0 0 0 0 0 0 0 0 0 0 0 0 0 0 0 0 0 0 0 0 0 0 0 0 0 175 189 137 199 308 351 350 320 265 213 130 58 31 0 0 0 0 0 0 0 0 0 0 0
0 0 0 0 0 0 0 0 0 0 0 0 0 0 0 0 0 0 0 0 0 0 0 0 0 10 404 680 603 649 796 826 784 546 419 239 157 119 0 0 0 0 0 0 0 0 0 0 0
0 0 0 0 0 0 0 0 0 0 0 0 0 0 0 0 0 0 0 0 0 0 0 0 0 0 152 802 913 871 897 964 1108 901 572 476 363 240 99 10 0 0 0 0 0 0 0 0 0
0 0 0 0 0 0 0 0 0 0 0 0 0 0 0 0 0 0 0 0 0 0 0 0 0 0 0 694 921 8 25 10 581 422 482 438 448 651 402 111 20 0 0 0 0 0 0 0 0
0 0 0 0 0 0 0 0 0 0 0 0 0 0 0 0 0 0 0 0 0 0 0 0 0 0 0 183 667 737 747 769 187 760 643 271 231 374 708 438 99 5 1 3 0 0 0 10 111
0 0 0 0 0 0 0 0 0 0 0 0 0 0 0 0 0 0 0 0 0 0 0 0 0 0 8 174 633 677 372 112 0 0 0 8 0 29 513 506 171 87 96 60 0 0 1 40 137
0 0 0 0 0 0 0 0 0 0 0 0 0 0 0 0 0 0 0 0 0 0 0 0 0 0 0 2 125 209 378 0 0 0 0 0 0 134 431 482 256 220 172 13 32 109 79 70 149
0 0 0 0 0 0 0 0 0 0 0 0 0 0 0 0 0 0 0 0 0 0 0 0 0 0 0 0 9 0 0 0 0 0 0 0 79 319 458 486 278 196 249 202 247 267 231 92 138
0 0 0 0 0 0 0 0 0 0 0 0 0 0 0 0 0 0 0 0 0 0 0 0 0 0 0 0 0 0 0 0 0 0 0 2 168 286 369 553 421 389 494 481 373 344 214 142 174
0 0 0 0 0 0 0 0 0 0 0 0 0 0 0 0 0 0 0 0 0 0 0 0 0 0 0 0 0 0 0 0 0 0 3 122 235 245 339 372 474 555 553 446 296 338 267 163 58
0 0 0 0 8 2 0 0 0 0 0 0 0 0 0 0 0 0 0 0 0 0 0 0 0 0 0 0 0 0 0 0 0 0 214 344 230 338 358 441 470 481 548 505 423 317 158 52 12
0 0 0 0 0 4 0 0 0 0 3 0 0 0 0 0 0 0 0 0 0 0 0 0 0 0 0 0 0 0 0 0 63 293 312 316 295 302 350 351 350 523 554 493 372 206 139 134 12
0 0 0 0 0 0 0 0 46 1 0 0 0 0 0 0 0 0 0 0 0 0 0 0 9 0 0 0 2 67 182 270 372 423 350 249 275 329 404 520 589 582 456 268 198 137 109 36 8